Location: Mohawk View
(42.7837°N, 73.7885°W)
Time: 13:16:36
(UTC+00:00)

Cosmos 2333 Rocket - Pass Details

Date: 17 June 2021
Orbit: 841 x 861 km, 70.8° (Epoch: 26 July)

Event Time Altitude Azimuth Distance (km) Brightness Sun altitude
Exits shadow 03:56:43 11° 234° (SW) 2,437 4.4 -22.4°
Maximum altitude 04:01:55 40° 302° (WNW) 1,254 3.4 -22.7°
Drops below altitude 10° 04:07:17 10° 12° (NNE) 2,493 5.6 -22.9°
Sets 04:09:54 0° 20° (NNE) 3,430 6.3 -23.0°
